Temperature
18 18 18 18 18 18 18 18 18 18 18 18 18 18 18 18 18 18 18 18 18 18 18 18 17 17 17 17 17 17 17 16 16 16 16 16 16 16 16 16 16 16 16
18 18 18 18 18 18 18 18 18 18 18 18 18 18 18 18 18 18 18 18 18 18 18 18 17 17 17 17 17 17 17 16 16 17 16 16 16 16 16 16 16 16 16
18 18 18 18 18 18 18 18 18 18 18 18 18 18 18 18 18 18 18 18 18 18 18 18 18 17 17 17 17 17 17 17 17 16 16 16 16 16 16 16 16 16 16
18 18 18 18 18 18 18 18 18 18 18 18 18 18 18 18 18 18 18 18 18 18 18 18 18 17 17 17 17 17 17 17 17 17 16 16 16 16 16 16 16 16 16
18 18 18 18 18 18 18 18 18 18 18 18 18 18 18 18 18 18 18 18 18 18 18 18 17 17 17 17 17 17 17 17 17 17 16 16 16 16 16 16 16 16 16
18 18 18 18 18 18 18 18 18 18 18 18 18 18 18 18 18 18 18 18 18 18 17 17 17 17 17 17 17 17 17 17 17 17 17 16 16 16 16 16 16 16 15
18 19 18 18 18 18 18 18 18 18 18 18 18 18 18 18 18 18 18 18 18 18 18 18 17 17 17 17 17 17 17 17 17 17 17 16 16 16 16 16 16 16 15
18 18 19 18 18 18 18 18 18 18 18 18 18 18 18 18 18 18 18 18 18 18 18 18 17 17 17 17 17 17 17 17 17 17 16 16 16 16 16 16 16 15 15
18 18 18 18 18 18 18 18 18 18 18 18 18 18 18 18 18 18 18 18 18 18 18 18 17 17 17 17 17 17 17 17 17 16 16 16 16 16 16 16 15 15 15
18 18 18 18 18 18 18 18 18 18 18 18 18 18 18 18 18 18 18 18 18 18 18 17 17 17 17 17 17 17 17 17 16 16 16 16 16 16 16 15 15 15 15
18 18 18 18 18 18 18 18 18 18 18 18 18 18 18 18 18 18 17 18 18 17 17 17 17 17 17 17 17 17 17 16 16 16 16 16 16 16 15 15 15 15 15
18 18 18 18 18 18 18 18 18 18 18 18 18 18 18 18 18 18 17 17 17 17 17 17 17 17 17 17 16 16 16 16 16 16 16 16 15 15 15 15 15 15 15
18 18 18 18 18 18 18 18 18 18 18 18 18 18 18 18 18 18 17 17 17 17 17 17 17 17 16 16 16 16 16 16 16 16 15 15 15 15 15 15 15 14 14
18 19 18 18 18 18 18 18 18 18 17 17 18 18 18 18 18 17 17 17 16 16 16 16 16 16 16 16 16 15 15 15 15 15 15 15 15 14 14 14 14 14 14
18 18 18 18 18 18 18 18 18 18 17 17 17 17 17 17 17 17 17 17 17 16 16 16 16 16 16 15 15 15 15 15 15 15 15 14 14 14 14 14 14 14 14
19 18 18 18 18 18 18 18 17 17 17 17 17 17 17 17 17 17 17 17 16 16 16 16 15 15 15 15 15 15 15 15 14 14 14 14 14 14 14 14 13 13 13
19 18 18 18 18 18 18 17 17 17 17 17 17 17 17 17 17 17 16 16 16 16 16 15 15 15 14 14 14 14 14 14 14 14 14 14 14 14 13 13 13 13 13
19 18 18 18 18 17 17 17 17 17 17 17 17 17 16 16 16 16 16 16 16 16 16 15 15 14 14 14 14 14 14 13 13 13 13 13 13 13 13 13 12 12 12
18 18 18 18 18 17 17 17 17 17 17 17 16 16 16 16 16 16 16 16 16 15 15 15 15 14 14 14 14 13 13 13 13 13 13 13 12 12 12 12 12 12 11
18 18 18 18 17 17 17 17 17 17 16 16 16 16 16 16 16 16 16 15 15 15 15 14 14 14 14 13 13 13 12 12 12 12 12 12 12 12 12 11 11 11 11
18 18 18 18 17 17 17 17 17 16 16 16 16 16 16 16 16 16 15 15 15 15 15 14 14 13 13 13 13 13 12 12 11 11 11 11 11 11 11 11 11 10 10
18 18 18 17 17 17 17 17 17 16 16 16 16 15 15 15 15 15 15 15 15 15 14 14 14 13 13 13 13 12 12 11 11 11 11 11 11 10 10 10 10 10 10
18 18 18 18 17 17 17 17 17 16 16 16 15 15 15 15 15 15 15 14 14 14 14 14 13 13 13 13 12 12 12 11 11 11 10 10 10 10 10 10 10 9 9
18 18 18 17 17 17 17 17 16 16 16 15 15 15 15 15 14 14 14 14 14 14 13 13 13 13 13 12 12 12 12 11 11 10 10 10 10 9 9 9 9 9 9
18 17 17 17 17 17 16 16 16 16 15 15 15 15 14 14 14 14 14 13 13 13 13 13 13 13 12 12 12 12 11 11 10 10 10 10 9 9 9 9 9 9 8
17 17 17 17 17 16 16 16 16 15 15 14 14 14 14 14 14 13 13 13 13 13 12 12 12 12 12 12 11 11 11 11 10 10 10 10 9 9 8 8 8 8 8
Wind_Speed
3 4 3 4 4 4 4 3 2 2 2 2 2 2 1 3 6 9 11 13 13 12 12 11 11 10 10 10 10 9 9 9 9 9 9 9 8 8 8 8 8 7 7
4 3 3 2 3 3 3 2 2 2 1 1 1 1 2 3 5 9 11 11 12 12 12 12 12 11 11 11 11 10 10 10 9 10 10 10 10 10 10 9 9 8 8
5 3 3 2 3 3 3 2 1 2 2 2 2 2 2 3 3 7 10 10 11 12 13 13 13 12 12 12 12 11 11 11 11 11 11 11 11 11 11 10 10 9 9
6 3 2 2 4 4 3 2 2 2 2 2 2 2 2 3 4 6 7 9 10 10 12 14 13 13 13 12 12 12 12 12 12 12 12 12 12 12 12 12 11 11 11
5 3 2 2 4 3 2 4 3 2 1 2 2 3 3 3 3 5 6 8 9 11 12 14 15 15 14 13 13 13 13 13 13 13 12 12 12 12 12 12 13 12 12
5 4 3 4 4 2 2 1 2 2 1 3 3 2 2 3 3 3 4 5 8 10 12 13 13 13 14 14 13 14 14 13 13 13 13 12 12 12 12 12 13 13 13
6 4 2 3 3 3 3 4 3 3 3 3 1 1 2 2 2 2 2 2 3 7 9 11 11 10 11 15 15 13 14 13 13 13 13 13 13 13 12 12 13 13 13
6 5 3 3 3 2 3 2 2 2 3 3 2 1 1 2 1 2 2 2 2 2 3 8 9 9 9 10 11 12 13 13 12 12 12 13 13 13 13 13 13 13 13
6 4 4 4 2 3 3 3 4 4 3 3 2 2 2 1 1 2 1 1 2 1 1 2 6 9 9 9 9 11 13 13 12 12 12 12 12 13 13 13 12 12 12
4 5 4 3 2 2 2 4 4 3 3 3 3 3 3 2 2 1 1 0 1 1 1 1 1 4 8 8 8 9 12 13 12 12 11 11 11 12 13 13 12 13 13
3 4 4 3 3 2 3 3 1 3 3 4 3 2 2 2 3 2 2 1 0 0 1 1 1 2 4 7 7 8 11 12 12 11 11 11 10 10 11 11 11 12 12
3 3 3 3 3 2 2 2 2 3 3 3 3 3 2 3 3 3 3 3 2 1 1 1 1 1 1 2 4 6 8 10 10 10 10 10 9 9 9 9 9 9 9
3 3 3 3 2 2 3 3 3 3 4 4 4 4 4 3 3 3 3 3 2 1 1 0 0 1 1 3 4 4 5 8 8 8 8 7 7 6 6 6 6 7 7
3 3 3 3 3 2 3 2 3 4 3 4 5 4 3 3 3 3 3 3 2 1 1 1 0 2 3 4 5 5 4 7 8 7 7 6 5 6 6 6 6 6 7
3 3 3 3 2 2 2 2 2 2 1 2 3 3 3 3 2 2 3 3 3 2 2 1 1 1 4 5 5 5 6 7 8 7 7 7 6 6 7 7 7 7 7
2 2 2 2 2 2 2 2 2 2 1 2 2 1 2 3 1 1 2 2 2 2 2 1 0 1 3 5 6 7 8 8 8 8 8 8 7 7 7 7 8 7 7
2 2 3 2 2 2 2 2 2 1 1 1 2 1 1 2 2 1 1 1 2 2 2 1 0 1 2 4 5 6 6 7 7 9 9 9 8 8 8 8 8 8 7
3 3 3 2 3 2 1 1 2 1 1 1 1 2 2 1 1 1 1 1 1 2 3 2 1 1 1 3 4 4 5 6 7 8 9 9 8 8 8 8 8 8 8
3 3 2 2 2 1 1 1 1 1 1 1 1 1 1 2 2 1 0 0 1 1 2 3 2 1 1 3 4 4 5 5 6 7 8 8 9 9 9 10 10 10 9
3 3 2 2 2 1 1 0 0 0 1 0 1 1 2 2 2 1 0 1 1 2 2 3 3 2 2 3 3 4 3 2 3 5 6 7 8 8 9 10 9 9 9
4 3 3 2 2 2 1 1 1 1 1 1 2 2 3 4 4 3 2 2 1 2 2 3 3 2 2 3 3 3 4 3 2 3 3 4 6 6 7 8 8 8 8
3 3 3 3 2 2 2 2 1 0 1 1 1 2 3 4 4 5 5 4 3 2 2 2 2 3 3 3 3 4 4 3 2 2 3 2 4 3 5 6 8 9 8
3 3 3 3 4 3 3 3 2 1 2 2 2 2 1 3 3 3 4 4 3 3 3 2 3 3 3 3 4 4 4 3 2 3 3 2 2 3 5 7 10 9 9
4 3 3 4 4 4 3 2 2 1 2 2 2 2 2 3 3 2 2 3 3 3 3 2 2 2 3 3 3 4 4 3 3 2 3 2 2 2 3 8 11 10 9
4 3 3 3 3 4 3 2 1 1 2 2 2 3 2 4 3 2 1 2 3 2 4 6 5 5 6 6 6 4 4 4 3 2 2 2 2 2 2 3 9 11 10
4 4 3 3 3 3 4 3 1 2 2 2 3 4 5 4 3 2 0 1 2 2 3 4 3 4 5 6 6 4 4 4 2 2 3 2 2 3 2 3 6 9 10
Wind_Direction
147 144 161 179 173 169 172 170 177 152 147 167 190 169 92 90 114 122 141 157 160 166 171 174 176 179 182 187 189 188 187 188 186 185 187 189 189 188 189 190 190 189 189
137 142 155 177 165 160 145 158 169 148 195 185 202 176 153 138 137 139 149 162 169 174 180 184 187 188 191 196 198 199 199 198 197 196 198 201 200 201 203 203 203 203 202
146 162 162 180 158 150 144 169 185 174 203 196 198 195 176 171 164 154 159 167 175 183 187 190 192 194 197 203 205 207 208 207 208 207 206 208 209 210 210 210 210 211 209
166 185 174 165 165 176 174 186 224 213 202 198 195 218 188 164 178 174 176 178 177 180 188 195 194 196 200 206 209 211 213 214 215 214 213 213 213 216 216 216 216 217 216
175 194 159 151 196 198 193 211 185 199 200 213 210 207 208 193 190 194 183 184 179 173 174 189 196 199 203 207 213 215 217 215 215 215 215 215 216 218 219 220 222 222 219
188 202 183 177 209 196 192 193 169 216 229 227 243 218 212 198 189 196 201 187 184 184 180 179 189 202 206 209 213 215 215 214 215 216 217 219 220 220 221 223 225 223 222
192 203 206 183 208 205 199 196 194 206 224 224 222 252 262 203 185 194 194 193 185 186 178 168 178 188 197 210 214 214 216 217 218 219 219 221 223 222 223 225 225 224 224
196 196 190 212 211 207 210 217 198 232 243 223 186 186 294 308 282 236 191 192 187 151 157 174 176 181 183 185 205 212 215 219 220 220 220 221 221 221 223 224 223 222 222
202 212 188 215 222 217 202 210 214 220 232 258 225 181 204 234 285 294 245 211 147 150 179 156 177 184 188 177 184 203 211 214 216 219 219 219 220 220 219 216 216 217 216
201 198 204 211 229 248 213 219 210 212 219 243 248 224 208 183 190 263 288 272 118 166 197 221 184 176 179 179 175 178 197 207 212 217 220 219 217 218 217 215 217 217 214
217 208 196 201 216 235 240 245 204 215 225 242 246 240 233 213 212 208 240 243 247 224 186 197 93 91 169 178 179 178 186 197 204 210 215 217 217 216 216 218 221 220 217
215 211 194 194 204 216 234 235 230 228 233 253 268 258 227 216 209 210 224 224 221 242 321 16 57 73 122 155 162 163 174 184 191 200 206 211 214 216 216 216 214 214 209
208 204 193 186 212 218 220 224 223 240 237 240 246 255 249 243 228 207 205 223 223 227 222 2 35 84 89 94 94 115 147 166 175 183 186 188 192 194 193 189 191 189 179
203 187 180 192 211 230 238 221 228 232 228 235 247 251 261 254 241 209 208 212 226 234 223 225 106 103 98 96 91 95 103 129 140 148 151 153 157 159 163 159 158 159 160
203 176 182 191 204 226 248 230 240 255 243 246 262 259 266 264 231 221 220 208 206 221 244 209 149 98 104 104 107 108 103 109 123 129 134 141 146 150 152 152 152 150 147
224 177 185 196 205 221 235 240 242 248 242 250 256 267 281 301 287 237 229 231 208 204 223 210 125 121 117 108 109 108 106 105 114 123 121 123 127 129 134 140 141 138 135
207 199 201 206 214 225 236 240 253 242 236 266 297 287 264 286 293 270 242 235 214 191 202 235 89 125 116 117 113 107 104 101 102 114 120 121 121 122 122 126 129 128 130
211 205 206 208 218 216 220 249 272 282 279 282 305 313 301 285 293 288 281 262 208 165 169 178 179 146 131 140 132 125 114 104 103 107 117 119 120 120 120 118 116 117 120
196 191 187 190 216 199 178 216 271 315 299 290 302 312 335 356 5 9 350 87 127 135 135 158 172 158 149 142 121 108 101 108 112 111 111 114 117 118 118 116 115 113 113
184 180 174 184 181 165 136 21 255 235 252 309 34 47 54 50 35 358 23 76 104 122 145 152 147 154 146 141 136 136 120 109 110 120 110 113 120 120 118 116 117 118 119
185 169 178 177 164 143 86 41 301 208 167 135 92 81 78 79 69 57 64 79 108 130 150 146 150 152 151 158 161 157 142 136 111 126 117 121 124 119 123 123 120 121 123
171 168 169 147 118 95 81 67 7 17 91 102 111 114 125 103 95 93 94 98 121 153 161 164 167 167 169 165 155 155 147 149 151 156 143 139 146 132 139 140 142 139 136
168 160 153 135 113 100 93 87 64 33 94 93 97 85 75 80 90 99 116 119 99 108 140 158 168 176 168 165 170 168 161 160 154 165 152 144 139 139 158 159 159 159 157
164 161 157 150 138 128 122 100 58 122 109 105 96 100 98 86 59 64 111 108 89 74 99 130 141 147 141 149 168 160 147 131 125 136 148 150 162 160 152 154 169 174 174
162 168 157 150 142 135 143 131 17 176 138 131 117 85 88 101 62 40 111 126 117 97 84 94 97 125 134 146 153 140 148 154 155 167 167 156 162 153 142 155 178 186 189
168 162 151 149 148 141 153 157 215 232 172 149 123 103 77 87 85 43 22 151 145 128 112 105 104 127 144 157 169 173 171 170 162 168 173 167 176 166 163 170 177 190 201
Height
1559 1560 1560 1561 1562 1564 1565 1566 1567 1568 1569 1570 1570 1571 1572 1572 1572 1572 1572 1573 1574 1574 1575 1575 1576 1577 1578 1579 1580 1581 1582 1583 1584 1585 1586 1587 1588 1589 1590 1590 1591 1592 1593
1559 1560 1561 1562 1563 1564 1565 1566 1567 1568 1569 1569 1570 1571 1572 1572 1573 1572 1572 1573 1573 1574 1574 1575 1576 1576 1577 1578 1579 1580 1581 1582 1583 1584 1585 1586 1587 1588 1588 1589 1590 1591 1592
1559 1560 1561 1562 1563 1564 1565 1566 1567 1568 1568 1569 1570 1571 1571 1572 1572 1572 1572 1572 1573 1573 1574 1574 1575 1576 1576 1577 1578 1579 1580 1581 1582 1582 1583 1584 1585 1586 1587 1588 1588 1589 1590
1559 1560 1561 1562 1563 1564 1565 1566 1567 1567 1568 1569 1569 1570 1570 1571 1571 1572 1572 1572 1572 1572 1573 1573 1574 1575 1575 1576 1576 1577 1578 1579 1580 1580 1581 1582 1583 1584 1585 1585 1586 1587 1588
1558 1559 1560 1561 1562 1563 1564 1565 1566 1567 1567 1568 1568 1569 1569 1570 1570 1571 1571 1571 1571 1571 1571 1572 1573 1573 1574 1574 1575 1575 1576 1577 1577 1578 1579 1580 1580 1581 1582 1583 1584 1585 1586
1557 1558 1559 1560 1561 1563 1563 1564 1565 1565 1566 1566 1567 1568 1568 1568 1569 1569 1569 1570 1570 1570 1570 1570 1571 1571 1572 1572 1573 1573 1574 1574 1575 1576 1576 1577 1578 1579 1579 1580 1581 1582 1583
1556 1557 1558 1559 1560 1561 1562 1563 1563 1564 1564 1565 1566 1566 1566 1566 1566 1566 1567 1568 1568 1569 1569 1569 1569 1569 1570 1570 1570 1571 1571 1572 1572 1573 1574 1574 1575 1576 1577 1577 1578 1579 1580
1555 1556 1557 1558 1559 1560 1560 1561 1561 1562 1563 1564 1564 1564 1565 1566 1564 1565 1565 1565 1566 1567 1567 1567 1567 1567 1567 1567 1568 1568 1568 1569 1569 1570 1571 1571 1572 1573 1573 1574 1575 1576 1577
1554 1555 1555 1556 1557 1558 1558 1559 1560 1560 1561 1562 1563 1563 1563 1563 1563 1563 1563 1563 1564 1564 1565 1565 1565 1565 1565 1565 1565 1565 1566 1566 1566 1567 1567 1568 1569 1570 1570 1571 1571 1572 1573
1552 1553 1554 1555 1555 1556 1556 1557 1557 1558 1559 1559 1560 1561 1562 1561 1561 1561 1562 1562 1562 1562 1562 1563 1563 1563 1563 1562 1562 1562 1563 1563 1564 1564 1564 1565 1566 1566 1567 1567 1568 1569 1569
1550 1551 1552 1553 1553 1554 1554 1555 1555 1556 1556 1557 1557 1558 1558 1559 1559 1560 1559 1559 1560 1559 1560 1560 1560 1560 1560 1559 1559 1559 1559 1560 1560 1561 1561 1562 1562 1563 1564 1564 1565 1565 1566
1549 1550 1550 1551 1551 1552 1552 1552 1553 1553 1554 1554 1554 1555 1555 1556 1556 1556 1556 1556 1556 1556 1556 1557 1556 1557 1557 1556 1556 1557 1556 1557 1557 1557 1558 1558 1559 1560 1560 1561 1561 1562 1563
1547 1548 1548 1548 1549 1549 1550 1550 1550 1550 1551 1551 1551 1552 1552 1552 1553 1553 1553 1553 1553 1553 1553 1553 1553 1553 1553 1553 1553 1554 1554 1554 1554 1554 1555 1555 1556 1556 1557 1557 1558 1559 1560
1545 1546 1546 1546 1547 1547 1547 1547 1547 1548 1548 1548 1549 1549 1549 1549 1549 1549 1549 1550 1550 1550 1550 1550 1551 1550 1550 1550 1550 1550 1550 1551 1551 1551 1552 1552 1553 1553 1554 1554 1555 1555 1556
1543 1544 1544 1544 1544 1545 1545 1545 1545 1545 1545 1545 1545 1546 1546 1546 1546 1546 1547 1547 1548 1547 1547 1547 1548 1548 1548 1547 1547 1548 1548 1549 1549 1549 1549 1549 1550 1550 1551 1551 1552 1552 1553
1541 1541 1542 1542 1542 1542 1542 1542 1543 1543 1543 1543 1543 1543 1543 1543 1543 1544 1544 1544 1544 1545 1544 1544 1545 1545 1546 1545 1545 1546 1546 1546 1546 1546 1547 1547 1547 1547 1547 1548 1548 1548 1549
1539 1539 1539 1539 1539 1540 1540 1540 1540 1540 1540 1541 1541 1541 1540 1540 1540 1541 1541 1541 1541 1541 1541 1541 1542 1543 1543 1543 1543 1544 1544 1544 1544 1544 1544 1544 1544 1544 1544 1544 1545 1545 1546
1536 1537 1537 1537 1537 1537 1537 1538 1538 1538 1538 1538 1538 1538 1538 1538 1538 1538 1538 1538 1538 1538 1539 1538 1539 1540 1541 1541 1541 1541 1542 1542 1542 1542 1542 1542 1542 1542 1542 1542 1543 1543 1543
1534 1535 1535 1535 1535 1535 1535 1535 1536 1536 1536 1536 1535 1535 1535 1535 1535 1535 1535 1536 1536 1536 1536 1537 1537 1538 1538 1539 1539 1539 1540 1539 1540 1540 1540 1540 1540 1540 1540 1540 1540 1541 1541
1533 1533 1533 1533 1533 1533 1533 1533 1533 1533 1533 1533 1533 1533 1533 1533 1533 1533 1533 1533 1533 1534 1534 1534 1535 1535 1536 1536 1537 1537 1537 1538 1538 1538 1538 1538 1538 1538 1539 1539 1539 1539 1540
1531 1531 1531 1531 1531 1531 1531 1531 1531 1531 1531 1531 1531 1531 1531 1531 1531 1531 1531 1531 1531 1532 1532 1532 1533 1533 1534 1534 1534 1535 1535 1536 1537 1537 1537 1537 1537 1537 1537 1538 1538 1538 1539
1529 1529 1529 1530 1529 1530 1530 1530 1530 1530 1529 1529 1529 1529 1530 1530 1530 1530 1530 1530 1530 1530 1530 1530 1531 1531 1531 1532 1533 1533 1534 1534 1535 1536 1536 1536 1536 1536 1537 1537 1537 1538 1538
1527 1527 1528 1528 1528 1528 1528 1528 1528 1528 1528 1528 1528 1528 1529 1529 1528 1528 1528 1528 1528 1528 1529 1529 1529 1529 1529 1530 1530 1531 1532 1532 1533 1534 1535 1535 1535 1535 1536 1536 1537 1537 1537
1525 1526 1526 1526 1526 1526 1527 1527 1527 1527 1527 1527 1527 1527 1527 1527 1527 1527 1527 1526 1526 1526 1527 1527 1527 1527 1528 1528 1529 1530 1530 1531 1532 1533 1533 1533 1534 1534 1535 1535 1535 1536 1536
1523 1523 1524 1524 1525 1525 1525 1526 1526 1526 1526 1526 1526 1526 1526 1526 1526 1526 1526 1525 1525 1525 1525 1525 1526 1526 1526 1527 1527 1528 1528 1529 1529 1530 1531 1532 1532 1533 1534 1534 1534 1535 1535
1520 1521 1521 1522 1522 1523 1523 1524 1524 1524 1524 1525 1524 1524 1524 1524 1524 1524 1524 1524 1524 1524 1524 1524 1525 1525 1525 1525 1526 1526 1526 1527 1527 1528 1529 1530 1530 1531 1531 1532 1533 1533 1533